Regional Weather Roundup
Issued by NWS State College, PA

Home | Current Version | Previous Version | Text Only | Print | Product List | Glossary On
Versions: 1 2 3 4 5 6 7 8 9 10 11 12 13 14 15 16 17 18 19 20 21 22 23 24 25 26 27 28 29 30 31 32 33 34 35 36 37 38 39 40 41 42 43 44 45 46 47 48 49 50
028
ASUS41 KCTP 281903
RWRCTP

REGIONAL WEATHER ROUNDUP
NATIONAL WEATHER SERVICE STATE COLLEGE PA
300 PM EDT FRI APR 28 2017

Note: "fair" indicates few or no clouds below 12,000 feet with no
significant weather and/or obstructions to visibility.

* = STATION THAT DOES NOT REPORT PRECIPITATION /E.G. RAIN...SNOW...ETC/
    THUNDER OR FOG.

PAZ002>004-007>009-013>016-020>023-029>032-282000-
WESTERN PENNSYLVANIA

CITY           SKY/WX    TMP DP  RH WIND       PRES   REMARKS
ERIE           CLOUDY    53  43  68 W5        30.04R
MEADVILLE      CLOUDY    63  43  48 S10       30.04R
FRANKLIN*      CLOUDY    64  43  45 S9        30.06R
NEW CASTLE     FAIR      67  46  47 SW7       30.05S
BEAVER COUNTY  SUNNY     70  46  43 SW6       30.04R
BUTLER*        CLOUDY    70  46  43 SW9       30.06S
PITTSBURGH INT CLOUDY    70  43  37 S5        30.03F
PITTSBURGH     CLOUDY    70  45  40 VRB6      30.03F
INDIANA*       SUNNY     72  45  37 W8        30.08S
LATROBE        PTSUNNY   72  50  46 SW9       30.06S
WASHINGTON CO* MOSUNNY   72  46  40 S5        30.05F
$$

PAZ004>006-010>012-017>019-024>028-033>037-041-042-045-046-049>053-282000-
CENTRAL PENNSYLVANIA

CITY           SKY/WX    TMP DP  RH WIND       PRES   REMARKS
BRADFORD       CLOUDY    66  34  30 SW8       30.04S
DUBOIS         PTSUNNY   67  42  40 SW10      30.05F
CLEARFIELD     PTSUNNY   70  38  31 SW13      30.06S
JOHNSTOWN      MOSUNNY   70  45  40 SW12      30.07S
ALTOONA        MOSUNNY   78  41  26 S7        30.05F
STATE COLLEGE  SUNNY     72  45  37 SW8       30.04F
WILLIAMSPORT   SUNNY     75  45  33 W10       30.01S
SELINSGROVE    MOSUNNY   76  49  38 VRB3      30.04R
FT INDIANTOWN  PTSUNNY   80  46  30 SW14      30.03R
CAPITAL CITY   MOSUNNY   82  44  26 NW8       30.02F
HARRISBURG     MOSUNNY   81  46  29 NW5       30.02F
YORK           SUNNY     80  50  34 W8        30.03F
$$

PAZ038>040-043-044-047-048-054-055-060>062-067>071-282000-
EASTERN PENNSYLVANIA

CITY           SKY/WX    TMP DP  RH WIND       PRES   REMARKS
SCRANTON       SUNNY     79  38  22 SW15      30.01R
MOUNT POCONO   SUNNY     76  32  20 W13G18    30.05R
ALLENTOWN      SUNNY     81  50  33 SW12G17   30.02R
QUAKERTOWN*    CLEAR     81  50  34 W9        30.04R
READING        SUNNY     81  48  31 W12       30.03R
LANCASTER      SUNNY     79  54  41 W10       30.03S
COATESVILLE    CLEAR     79  52  38 NW8G14    30.06S
POTTSTOWN      SUNNY     80  46  30 SW10G20   30.05R
BLUE BELL      SUNNY     79  46  31 W8        30.04R
DOYLESTOWN     SUNNY     82  44  26 W10G17    30.01R
WILLOW GROVE   NOT AVBL
NORTH PHILA    SUNNY     85  47  26 W16       30.02R
PHILADELPHIA   MOSUNNY   84  51  31 W13       30.02R
$$




USA.gov is the U.S. government's official web portal to all federal, state and local government web resources and services.